Regional Weather Roundup
Issued by NWS

Home | Current Version | Previous Version | Text Only | Print | Product List | Glossary On
Versions: 1 2 3 4 5 6 7 8 9 10 11 12 13 14 15 16 17 18 19 20 21 22 23 24 25 26 27 28 29 30 31 32 33 34 35 36 37 38 39 40 41 42 43 44 45 46 47
000
ASUS43 KDMX 211007
RWRIA

WEATHER ROUNDUP FOR IOWA
NATIONAL WEATHER SERVICE DES MOINES IA
500 AM CDT THU AUG 21 2014

NOTE: "FAIR" INDICATES FEW OR NO CLOUDS BELOW 12,000 FEET WITH NO
SIGNIFICANT WEATHER AND/OR OBSTRUCTIONS TO VISIBILITY.

* - THESE STATIONS ARE NOT NWS STATIONS...THUS NOT UNDER NWS
QUALITY CONTROL.  THEY ALSO DO NOT REPORT WEATHER SUCH
AS PRECIPITATION OR FOG.

IAZ001>003-012>014-020>022-031>034-043>046-211100-
   NORTHWEST IOWA

CITY           SKY/WX    TMP DP  RH WIND       PRES   REMARKS
CARROLL *      PTCLDY    75  70  83 SW14G21   29.76F
CHEROKEE *     LGT RAIN  75  72  88 S16       29.71S
DENISON *      CLEAR     75  70  83 S12G18    29.74F
LE MARS *      CLEAR     75  72  88 S13       29.71R
ORANGE CITY *  CLEAR     75  70  83 S10       29.71R
SHELDON *      PTCLDY    73  72  94 S10       29.70R
SIOUX CITY     PTCLDY    78  70  76 S9        29.71S HX  80
SPENCER        CLOUDY    75  71  87 S12       29.71S
STORM LAKE *   CLEAR     75  73  94 S15G23    29.74S
$$

IAZ055>058-069>071-079>083-090>094-211100-
   SOUTHWEST IOWA

CITY           SKY/WX    TMP DP  RH WIND       PRES   REMARKS
ATLANTIC *     MOCLDY    77  70  78 S10       29.78F
AUDUBON *      PTCLDY    79  72  78 S9        29.80F HX  82
CLARINDA *     CLEAR     75  70  83 S9        29.83S
COUNCIL BLFS * PTCLDY    79  70  73 MISG      29.78S HX  81
CRESTON *      CLEAR     73  70  88 S13       29.84F
HARLAN  *      MOCLDY    75  70  83 S10G16    29.81F
LAMONI         PTCLDY    74  68  81 S9        29.86F
RED OAK *      PTCLDY    77  70  78 S12       29.79F
SHENANDOAH *   MOCLDY    77  70  78 S8        29.80F
$$

IAZ047>049-059>061-072>074-084-211100-
   CENTRAL IOWA

CITY           SKY/WX    TMP DP  RH WIND       PRES   REMARKS
AMES           PTCLDY    74  71  91 S7        29.79F
ANKENY *       PTCLDY    75  72  88 S7        29.80F
CHARITON *     PTCLDY    73  70  88 S10       29.85F
DES MOINES     PTCLDY    77  70  79 S9        29.80F
GRINNELL*      PTCLDY    73  70  88 S7        29.84F
KNOXVILLE *    CLEAR     75  70  83 S10       29.83F
MARSHALLTOWN   MOCLDY    73  71  93 S9        29.80F
PELLA *        CLEAR     75  70  83 S7        29.84F
PERRY *          N/A     73  70  88 S12       29.77F
$$

IAZ004>006-015-016-023>025-035-036-211100-
   NORTH CENTRAL IOWA

CITY           SKY/WX    TMP DP  RH WIND       PRES   REMARKS
ALGONA *       CLEAR     75  72  88 S10G22    29.76R
CLARION *      PTCLDY    73  73 100 S10G17    29.79R
ESTHERVILLE    TSTM      71  68  90 SE12G17   29.75R FOG
FORT DODGE *   MOCLDY    75  72  88 S9G17     29.77S
MASON CITY     CLOUDY    71  70  96 SE10      29.81F FOG
FOREST CITY *  MOCLDY    72  72 100 SE9       29.79S
IOWA FALLS *     N/A     72  70  94 SE7       29.81F
$$

IAZ007>011-017>019-026>030-037>042-050>054-066-211100-
   NORTHEAST IOWA

CITY           SKY/WX    TMP DP  RH WIND       PRES   REMARKS
CEDAR RAPIDS   PTCLDY    73  73 100 S7        29.85F FOG
CHARLES CITY * CLOUDY    70  70 100 SE9       29.82F FOG
CLINTON *      MOCLDY    70  68  94 SE5       29.92S
DECORAH *      PTCLDY    70  68  94 SE9       29.85F
DUBUQUE        CLOUDY    71  68  90 E6        29.90S
MONTICELLO *   CLOUDY    72  72 100 SE6       29.86F
OELWEIN *      CLOUDY    70  70 100 SE12      29.85F FOG
WATERLOO       CLOUDY    71  70  96 S9        29.81F
$$

IAZ064-065-067-068-078-211100-
   EAST CENTRAL IOWA

CITY           SKY/WX    TMP DP  RH WIND       PRES   REMARKS
DAVENPORT      MOCLDY    71  69  93 S6        29.89S
IOWA CITY      PTCLDY    71  71 100 CALM      29.87F FOG
MT. PLEASANT * CLEAR     72  70  94 S7        29.88F
MUSCATINE *    CLEAR     72  70  94 CALM      29.87F
QUAD CITIES    PTCLDY    72  69  90 S5        29.87F
$$

IAZ062-063-075>077-085>089-095>099-211100-
   SOUTHEAST IOWA

CITY           SKY/WX    TMP DP  RH WIND       PRES   REMARKS
BURLINGTON     CLEAR     73  70  90 S9        29.89F
FAIRFIELD *    PTCLDY    73  70  88 S8        29.87F
FORT MADISON * CLEAR     73  72  94 S7        29.90F
KEOKUK *       CLEAR     73  72  94 S10       29.89F
OSKALOOSA *      N/A     73  70  88 S6        29.85F
CENTERVILLE *  CLEAR     73  70  88 S7        29.90S
OTTUMWA        PTCLDY    74  69  85 S6        29.86F
WASHINGTON *   PTCLDY    73  73 100 S8        29.86F
$$

ABBREVIATIONS USED IN REMARKS
   TC - TEMPERATURES IN CELSIUS
  WCI - WIND CHILL INDEX
   HX - HEAT INDEX
  VSB - VISIBILITY
$$




USA.gov is the U.S. government's official web portal to all federal, state and local government web resources and services.